Terminal Aerodrome Forecast
Issued by NWS

Home | Current Version | Previous Version | Text Only | Print | Product List | Glossary On
Versions: 1 2 3 4 5 6 7 8 9 10 11 12 13 14
000
FTUS45 KRIW 281100
TAFJAC
TAF
KJAC 281124Z 2812/2912 23008KT P6SM BKN100 WS018/24035KT
     FM281700 20014G22KT P6SM SCT110 WS018/23035KT
     FM290300 20014G20KT P6SM SCT040 OVC060 WS018/23040KT
     FM291000 21014KT 3SM -SN SCT015 OVC023
      AMD LTD TO CLD VIS AND WIND=

USA.gov is the U.S. government's official web portal to all federal, state and local government web resources and services.